[[{"header":{"parameterUnit":"m.s-1","parameterCategory":2,"la1":30.2991,"la2":30.254,"lo1":-89.0895,"lo2":-89.0444,"dy":0.0017,"dx":0.0017,"nx":28,"ny":28,"refTime":"2024-06-05T21:00:00:Z","depth":"0","parameterNumber":2,"parameterNumberName":"U-component_of_CURRENTS"},"data":[0,0,0,0,0,0,0,0,0,0,0,0,0,0,0,0,0,0,0,0,0,0,0,0,0,0,0,0,0,0,0,0,0,0,0,0,0,0,0,0,0,0,0,0,0,0,0,0,0,0,0,0,0,0,0,0,0,0,0.202,0.2021,0,0.2102,0.2102,0.2103,0.2109,0.2108,0.2107,0.2107,0.212,0.2121,0.2121,0,0,0,0,0,0,0,0,0,0,0,0,0,0.188,0.1882,0.202,0.2021,0.2023,0.2102,0.2102,0.2103,0.2109,0.2108,0.2107,0.2107,0.2119,0.212,0.2121,0,0,0,0,0,0,0,0,0,0,0,0,0,0.1946,0.1883,0.202,0.2037,0.204,0.2101,0.2102,0.2103,0.2109,0.2108,0.2107,0.2106,0.2119,0.212,0.2122,0.2148,0,0,0.2126,0.2126,0,0,0,0,0,0,0,0,0.1942,0.195,0.2034,0.2036,0.2039,0.2097,0.2058,0.2116,0.2109,0.2079,0.2107,0.2106,0.2109,0.2111,0.2124,0.2149,0.2149,0.2126,0.2127,0.2127,0.2128,0,0,0,0,0,0,0,0.1937,0.1947,0.2049,0.2035,0.2039,0.2045,0.2053,0.2069,0.2094,0.2082,0.2083,0.2098,0.2109,0.2123,0.2124,0.2149,0.2126,0.2127,0.2128,0.2128,0.2224,0.2226,0,0,0,0,0,0,0.1935,0.1943,0.2046,0.2052,0.1991,0.2049,0.2057,0.2077,0.2095,0.2099,0.2099,0.2098,0.2121,0.2123,0.2125,0.2189,0.2127,0.2129,0.2129,0.2222,0.2225,0.2226,0,0,0,0,0,0,0.1932,0.1944,0.2043,0.2001,0.2015,0.2052,0.2074,0.2079,0.2096,0.211,0.2111,0.2111,0.2121,0.2123,0.2157,0.2188,0.2129,0.213,0.222,0.2223,0.2225,0.2296,0,0,0,0,0,0,0.1927,0.1942,0.1955,0.2001,0.2017,0.2086,0.2075,0.2081,0.2108,0.2108,0.2121,0.2121,0.212,0.2155,0.2158,0.2188,0.2131,0.2218,0.2222,0.2225,0.2291,0.23,0.2308,0,0,0,0,0,0.1922,0.1942,0.1955,0.1967,0.2034,0.2088,0.2097,0.2117,0.211,0.2127,0.2141,0.2121,0.2177,0.2158,0.2161,0.2192,0.2217,0.2221,0.2224,0.2287,0.2298,0.2308,0,0,0,0,0,0,0.1886,0.1946,0.1961,0.1997,0.2044,0.209,0.2108,0.2123,0.2149,0.2145,0.2147,0.215,0.219,0.2184,0.2162,0.223,0.2192,0.2197,0.2239,0.225,0.2258,0.2224,0.2133,0,0,0,0,0,0.1886,0.1916,0.1975,0.2005,0.2029,0.2069,0.2093,0.2112,0.2144,0.2154,0.2168,0.2183,0.221,0.2222,0.224,0.2279,0.2301,0.2301,0.2309,0.2317,0.2292,0.2349,0.236,0.2239,0.2239,0.2239,0,0,0.1879,0.1918,0.1934,0.1999,0.2033,0.2077,0.208,0.2123,0.2156,0.2151,0.2193,0.2213,0.2227,0.2274,0.2291,0.2272,0.238,0.2322,0.2328,0.2298,0.2354,0.2366,0.2376,0.2242,0.2241,0.2241,0,0,0.1884,0.1918,0.1946,0.199,0.2051,0.2083,0.2097,0.2154,0.2174,0.2224,0.2233,0.2268,0.2306,0.2328,0.2341,0.2405,0.2423,0.2419,0.2436,0.2493,0.2503,0.2512,0.263,0.2648,0.2424,0.2424,0.2424,0,0.1872,0.1924,0.1963,0.2007,0.2041,0.2086,0.2126,0.2162,0.2222,0.2243,0.2241,0.2316,0.2327,0.2387,0.2407,0.2422,0.2477,0.2398,0.2504,0.2513,0.252,0.2638,0.2657,0.2428,0.2428,0.2427,0.2427,0,0.1907,0.1949,0.1971,0.204,0.2079,0.2125,0.2183,0.2224,0.2251,0.2283,0.2345,0.2377,0.2416,0.244,0.2439,0.2508,0.2543,0.2511,0.2476,0.2537,0.2658,0.2677,0.2434,0.2432,0.2431,0.243,0,0,0.1882,0.1975,0.1985,0.2018,0.2102,0.2137,0.2198,0.2264,0.2303,0.2355,0.2406,0.2455,0.2469,0.2483,0.2508,0.2549,0.2678,0.2551,0.2552,0.2665,0.2865,0.2988,0.3021,0.267,0.2672,0.2673,0.2955,0,0.19,0.197,0.2018,0.2084,0.2124,0.2184,0.2239,0.2299,0.2348,0.241,0.2448,0.251,0.249,0.253,0.2565,0.2638,0.2718,0.2607,0.2788,0.2795,0.2893,0.3042,0.2962,0.3212,0.2974,0.2977,0.2979,0,0.1926,0.1969,0.2027,0.2109,0.2132,0.2171,0.2257,0.2315,0.2406,0.2449,0.2504,0.2548,0.2631,0.2599,0.2756,0.2692,0.2778,0.2834,0.2846,0.2932,0.2951,0.3098,0.3255,0.3176,0.3008,0.3006,0.3003,0,0.1892,0.1978,0.2016,0.2047,0.2144,0.2172,0.2224,0.2313,0.2381,0.2478,0.2553,0.2626,0.2722,0.2784,0.2926,0.2845,0.3122,0.3028,0.3236,0.3248,0.3196,0.32,0.328,0.3149,0.3148,0.3147,0.3146,0,0.1902,0.1938,0.1996,0.2024,0.2077,0.2141,0.2213,0.2283,0.2393,0.2504,0.2566,0.2701,0.277,0.2943,0.2993,0.3228,0.3198,0.3279,0.3332,0.323,0.3234,0.3171,0.3111,0.3158,0.3155,0.3153,0.3152,0,0.1876,0.1921,0.1968,0.2041,0.2067,0.2099,0.222,0.2289,0.2395,0.2549,0.2601,0.2803,0.3047,0.3173,0.3356,0.3386,0.3478,0.3635,0.3557,0.3595,0.364,0.3588,0.3571,0.3464,0.3868,0.3872,0.3876,0,0.1875,0.1891,0.1961,0.1995,0.2028,0.209,0.2162,0.2276,0.2374,0.2639,0.2736,0.3026,0.3237,0.3592,0.372,0.3912,0.3729,0.3949,0.3747,0.3684,0.3662,0.3433,0.3322,0.3738,0.3741,0.3743,0.3745,0,0.1868,0.1883,0.1926,0.1984,0.2044,0.2121,0.2228,0.2298,0.2481,0.2644,0.291,0.3093,0.3497,0.3692,0.3991,0.4064,0.376,0.4001,0.3918,0.3576,0.3342,0.3251,0.3556,0.3763,0.3761,0.376,0.3759,0.3758,0.1863,0.1883,0.1932,0.1991,0.206,0.2141,0.2183,0.2335,0.2498,0.2728,0.2958,0.3214,0.3564,0.3967,0.4026,0.4112,0.3975,0.3996,0.3954,0.374,0.3563,0.3969,0.4237,0.4237,0.4238,0.4239,0.4239,0,0.1868,0.1902,0.1947,0.2019,0.2077,0.2118,0.2235,0.2274,0.2445,0.2717,0.2943,0.3337,0.3599,0.3827,0.4098,0.4047,0.3756,0.3964,0.3553,0.3454,0.3829,0.3749,0.3942,0.3942,0.3942,0.3942,0.3942,0.3942,0.1878,0.1918,0.194,0.2018,0.2065,0.2103,0.2143,0.2224,0.2374,0.2646,0.2888,0.3111,0.3551,0.3937,0.4007,0.3929,0.3587,0.3514,0.3436,0.3657,0.3651,0.3645,0.3553,0.3702,0.3701,0.2873,0.2867,0.2863]},{"header":{"parameterUnit":"m.s-1","parameterCategory":2,"la1":30.2991,"la2":30.254,"lo1":-89.0895,"lo2":-89.0444,"dy":0.0017,"dx":0.0017,"nx":28,"ny":28,"refTime":"2024-06-05T21:00:00:Z","depth":"0","parameterNumber":3,"parameterNumberName":"V-component_of_CURRENTS"},"data":[0,0,0,0,0,0,0,0,0,0,0,0,0,0,0,0,0,0,0,0,0,0,0,0,0,0,0,0,0,0,0,0,0,0,0,0,0,0,0,0,0,0,0,0,0,0,0,0,0,0,0,0,0,0,0,0,0,0,-0.0312,-0.0314,0,-0.0406,-0.0407,-0.0408,-0.0442,-0.0441,-0.0441,-0.0441,-0.046,-0.0461,-0.0462,0,0,0,0,0,0,0,0,0,0,0,0,0,-0.0184,-0.0186,-0.0312,-0.0314,-0.0315,-0.0406,-0.0407,-0.0408,-0.0442,-0.0441,-0.0441,-0.0441,-0.046,-0.0461,-0.0462,0,0,0,0,0,0,0,0,0,0,0,0,0,-0.0254,-0.0187,-0.0312,-0.0343,-0.0347,-0.0405,-0.0407,-0.0408,-0.0442,-0.0441,-0.0441,-0.044,-0.046,-0.0461,-0.0462,-0.0478,0,0,-0.0466,-0.0466,0,0,0,0,0,0,0,0,-0.025,-0.0259,-0.0337,-0.0341,-0.0345,-0.0412,-0.0369,-0.0428,-0.0442,-0.0405,-0.0441,-0.044,-0.0438,-0.0441,-0.046,-0.0479,-0.048,-0.0466,-0.0467,-0.0467,-0.0467,0,0,0,0,0,0,0,-0.0245,-0.0255,-0.0349,-0.0338,-0.0343,-0.0359,-0.0368,-0.0381,-0.0421,-0.0408,-0.0411,-0.0422,-0.044,-0.0459,-0.046,-0.048,-0.0466,-0.0467,-0.0468,-0.0468,-0.0581,-0.0583,0,0,0,0,0,0,-0.0235,-0.0251,-0.0346,-0.0352,-0.0296,-0.0362,-0.0372,-0.0391,-0.0423,-0.0428,-0.0423,-0.0424,-0.0457,-0.0459,-0.0461,-0.0523,-0.0467,-0.0468,-0.0469,-0.0579,-0.0582,-0.0584,0,0,0,0,0,0,-0.0232,-0.0242,-0.0342,-0.0303,-0.0317,-0.0364,-0.0385,-0.0393,-0.0414,-0.0434,-0.0438,-0.0436,-0.0457,-0.0459,-0.0497,-0.0522,-0.0469,-0.047,-0.0576,-0.058,-0.0583,-0.0619,0,0,0,0,0,0,-0.0228,-0.0241,-0.0248,-0.0303,-0.0319,-0.038,-0.0386,-0.0395,-0.0421,-0.0424,-0.0447,-0.0448,-0.0457,-0.0496,-0.0499,-0.0523,-0.0471,-0.0573,-0.0578,-0.0582,-0.0615,-0.0624,-0.0631,0,0,0,0,0,-0.0223,-0.0237,-0.0248,-0.026,-0.0328,-0.038,-0.039,-0.0422,-0.0422,-0.0437,-0.0467,-0.0448,-0.0525,-0.0499,-0.0501,-0.0526,-0.0571,-0.0577,-0.0582,-0.0612,-0.0622,-0.0631,0,0,0,0,0,0,-0.0183,-0.0244,-0.0257,-0.0288,-0.0331,-0.0386,-0.0404,-0.0422,-0.0459,-0.0458,-0.0473,-0.0478,-0.0525,-0.0525,-0.0495,-0.0576,-0.0546,-0.0552,-0.0569,-0.0578,-0.0586,-0.0545,-0.0472,0,0,0,0,0,-0.0178,-0.0208,-0.0263,-0.0288,-0.0308,-0.0355,-0.0378,-0.04,-0.044,-0.0456,-0.0478,-0.0508,-0.055,-0.0561,-0.0593,-0.0626,-0.0601,-0.0648,-0.0656,-0.0662,-0.0635,-0.0659,-0.0665,-0.0601,-0.0601,-0.0601,0,0,-0.0168,-0.0206,-0.0222,-0.0282,-0.0316,-0.0357,-0.0368,-0.0406,-0.0439,-0.045,-0.0499,-0.0533,-0.0568,-0.0621,-0.064,-0.062,-0.0667,-0.0669,-0.0674,-0.0642,-0.0664,-0.067,-0.0675,-0.0605,-0.0604,-0.0604,0,0,-0.0172,-0.02,-0.0229,-0.0266,-0.032,-0.0354,-0.0364,-0.0423,-0.0447,-0.0499,-0.0529,-0.0574,-0.0625,-0.0662,-0.0685,-0.075,-0.0712,-0.077,-0.0766,-0.0791,-0.0795,-0.0799,-0.0758,-0.0758,-0.0768,-0.0768,-0.0768,0,-0.0154,-0.0201,-0.0243,-0.0282,-0.031,-0.0353,-0.0385,-0.0426,-0.049,-0.0505,-0.0515,-0.0611,-0.0643,-0.0705,-0.0741,-0.0763,-0.0749,-0.0725,-0.0797,-0.08,-0.0803,-0.0761,-0.076,-0.077,-0.077,-0.077,-0.077,0,-0.0188,-0.022,-0.024,-0.0305,-0.0341,-0.0375,-0.0433,-0.0466,-0.0496,-0.053,-0.059,-0.0648,-0.0688,-0.0732,-0.0756,-0.0806,-0.0779,-0.0807,-0.0763,-0.0811,-0.0764,-0.0762,-0.0774,-0.0773,-0.0772,-0.0772,0,0,-0.0152,-0.0244,-0.0249,-0.0269,-0.0351,-0.0376,-0.0436,-0.0489,-0.0495,-0.0571,-0.058,-0.0693,-0.07,-0.0727,-0.0771,-0.0804,-0.0824,-0.0812,-0.0812,-0.0749,-0.0829,-0.0758,-0.0748,-0.087,-0.0871,-0.0871,-0.0781,0,-0.016,-0.0219,-0.0271,-0.0315,-0.0343,-0.0398,-0.0437,-0.0487,-0.0522,-0.054,-0.0607,-0.0629,-0.0707,-0.0707,-0.0768,-0.0801,-0.0823,-0.0841,-0.0809,-0.0806,-0.0721,-0.0746,-0.0721,-0.0636,-0.0779,-0.0778,-0.0778,0,-0.0168,-0.0206,-0.0249,-0.0297,-0.0312,-0.0341,-0.0376,-0.0414,-0.0461,-0.0476,-0.0524,-0.0556,-0.0612,-0.0663,-0.0742,-0.0749,-0.0786,-0.0818,-0.0816,-0.0727,-0.0732,-0.0618,-0.0626,-0.0869,-0.0775,-0.0775,-0.0775,0,-0.0104,-0.018,-0.0204,-0.0228,-0.0299,-0.031,-0.0335,-0.0384,-0.0363,-0.0406,-0.0353,-0.0475,-0.0437,-0.0566,-0.0629,-0.0687,-0.0676,-0.0764,-0.0731,-0.0723,-0.0679,-0.0667,-0.0895,-0.0812,-0.0812,-0.0812,-0.0813,0,-0.0082,-0.0094,-0.0167,-0.0175,-0.0166,-0.024,-0.0211,-0.0249,-0.0242,-0.0146,-0.0285,-0.019,-0.0407,-0.0424,-0.0568,-0.0601,-0.0625,-0.0705,-0.0702,-0.069,-0.0681,-0.087,-0.0986,-0.0809,-0.081,-0.081,-0.0811,0,0.0,-0.006,-0.0069,-0.0127,-0.0132,-0.0113,-0.0089,-0.004,-0.0058,0.0077,0.0096,0.0062,0.0053,-0.0141,-0.0274,-0.0432,-0.0634,-0.0541,-0.0473,-0.0466,-0.071,-0.0826,-0.094,-0.1042,-0.052,-0.0518,-0.0516,0,0.0035,0.0033,0.0004,0.0037,0.0021,0.0043,0.0094,0.0066,0.0158,0.0284,0.0401,0.042,0.051,0.0324,0.0017,-0.021,-0.0465,-0.035,-0.049,-0.07,-0.0829,-0.0929,-0.1017,-0.0438,-0.0436,-0.0434,-0.0432,0,0.0126,0.0119,0.0122,0.019,0.0245,0.0307,0.0386,0.0494,0.0547,0.0704,0.0945,0.1026,0.0852,0.0653,0.0295,0.0084,-0.0518,-0.0315,-0.0583,-0.081,-0.0883,-0.0986,-0.0484,-0.0415,-0.0417,-0.0418,-0.0419,-0.042,0.0224,0.027,0.0298,0.0377,0.0454,0.0606,0.0739,0.0877,0.1101,0.1398,0.1398,0.1594,0.1165,0.0689,0.0355,-0.0306,-0.0333,-0.054,-0.066,-0.074,-0.0867,-0.0283,-0.0192,-0.0192,-0.0192,-0.0193,-0.0193,0,0.0366,0.042,0.0497,0.0624,0.0785,0.0761,0.0978,0.1162,0.1521,0.1747,0.1978,0.1869,0.1368,0.0738,-0.0122,-0.059,-0.0835,-0.0877,-0.1087,-0.1164,-0.0687,-0.0718,-0.0677,-0.0677,-0.0676,-0.0676,-0.0676,-0.0676,0.0453,0.0573,0.0618,0.0911,0.1024,0.1275,0.1433,0.1699,0.1895,0.2238,0.2349,0.2366,0.1845,0.0307,-0.0797,-0.1071,-0.1452,-0.1469,-0.1674,-0.1442,-0.1424,-0.1407,-0.1472,-0.1589,-0.159,-0.2134,-0.2139,-0.2143]}],[{"header":{"parameterUnit":"m.s-1","parameterCategory":2,"la1":30.2991,"la2":30.254,"lo1":-89.0895,"lo2":-89.0444,"dy":0.0017,"dx":0.0017,"nx":28,"ny":28,"refTime":"2024-06-05T21:00:00:Z","depth":"2","parameterNumber":2,"parameterNumberName":"U-component_of_CURRENTS"},"data":[0,0,0,0,0,0,0,0,0,0,0,0,0,0,0,0,0,0,0,0,0,0,0,0,0,0,0,0,0,0,0,0,0,0,0,0,0,0,0,0,0,0,0,0,0,0,0,0,0,0,0,0,0,0,0,0,0,0,0.1893,0.1894,0,0.1957,0.1958,0.1959,0.1983,0.1983,0.1982,0.1982,0.2011,0.2013,0.2014,0,0,0,0,0,0,0,0,0,0,0,0,0,0.184,0.1841,0.1893,0.1894,0.1894,0.1957,0.1958,0.196,0.1983,0.1983,0.1982,0.1982,0.2011,0.2012,0.2014,0,0,0,0,0,0,0,0,0,0,0,0,0,0.1882,0.1841,0.1893,0.1912,0.1914,0.1957,0.1958,0.196,0.1983,0.1983,0.1982,0.1981,0.2011,0.2012,0.2014,0.204,0,0,0.202,0.2021,0,0,0,0,0,0,0,0,0.188,0.1884,0.1908,0.191,0.1913,0.1959,0.195,0.1984,0.1984,0.196,0.1982,0.1981,0.1989,0.1993,0.2011,0.2041,0.2042,0.202,0.2021,0.2022,0.2022,0,0,0,0,0,0,0,0.1877,0.1882,0.1922,0.1909,0.1912,0.1933,0.1938,0.1958,0.1979,0.1962,0.1963,0.1966,0.1991,0.2009,0.2012,0.2043,0.202,0.2022,0.2023,0.2023,0.2143,0.2145,0,0,0,0,0,0,0.1861,0.1879,0.1919,0.1923,0.1891,0.1934,0.194,0.1947,0.198,0.1984,0.1966,0.1967,0.2007,0.201,0.2013,0.2096,0.2022,0.2024,0.2025,0.2141,0.2143,0.2146,0,0,0,0,0,0,0.186,0.1865,0.1917,0.19,0.1908,0.1935,0.1944,0.1949,0.1984,0.1983,0.1987,0.1997,0.2006,0.201,0.2059,0.2095,0.2024,0.2026,0.2138,0.2142,0.2144,0.223,0,0,0,0,0,0,0.1858,0.1864,0.1889,0.1899,0.1908,0.1972,0.1944,0.195,0.1984,0.1986,0.2011,0.2012,0.2006,0.2056,0.2061,0.2097,0.2028,0.2136,0.214,0.2143,0.2224,0.2236,0.2245,0,0,0,0,0,0.1856,0.1895,0.189,0.1896,0.1933,0.1974,0.1983,0.2001,0.1986,0.2025,0.2035,0.2012,0.2083,0.206,0.2064,0.2102,0.2134,0.2139,0.2143,0.222,0.2233,0.2245,0,0,0,0,0,0,0.1881,0.19,0.1895,0.1936,0.1963,0.1978,0.2016,0.2015,0.2055,0.2055,0.2045,0.2049,0.2099,0.2095,0.2069,0.2148,0.2102,0.2108,0.2159,0.2172,0.2182,0.2173,0.2029,0,0,0,0,0,0.1895,0.193,0.1944,0.1976,0.1993,0.2005,0.2029,0.2036,0.2058,0.2076,0.2083,0.2096,0.2122,0.2142,0.2158,0.221,0.2222,0.2236,0.2246,0.2255,0.2252,0.2288,0.2301,0.2161,0.2161,0.2161,0,0,0.1905,0.1925,0.1941,0.1985,0.2004,0.2045,0.2021,0.2063,0.21,0.2072,0.213,0.2132,0.2142,0.2197,0.2219,0.22,0.2315,0.2261,0.2268,0.226,0.2294,0.2307,0.2319,0.2164,0.2163,0.2163,0,0,0.1945,0.1967,0.201,0.2042,0.208,0.2093,0.2108,0.2133,0.2157,0.2207,0.2192,0.2222,0.2259,0.2277,0.229,0.2369,0.2362,0.2372,0.2426,0.2462,0.2474,0.2484,0.2577,0.2594,0.2384,0.2384,0.2385,0,0.1956,0.2007,0.2031,0.2081,0.2109,0.2115,0.216,0.2195,0.2231,0.2252,0.2238,0.2289,0.2298,0.236,0.2388,0.2392,0.2425,0.2378,0.2475,0.2485,0.2493,0.2586,0.2604,0.2389,0.2389,0.2388,0.2388,0,0.2024,0.2069,0.21,0.2159,0.2201,0.2243,0.2278,0.2317,0.2328,0.2346,0.2401,0.2413,0.2437,0.2453,0.2446,0.2516,0.2528,0.2478,0.2441,0.2513,0.2607,0.2624,0.2396,0.2394,0.2393,0.2392,0,0,0.2022,0.2125,0.2135,0.2164,0.2243,0.2269,0.2347,0.2406,0.2436,0.2477,0.2519,0.2568,0.2552,0.2564,0.2559,0.2594,0.2706,0.2567,0.2567,0.2658,0.2835,0.2803,0.2819,0.2667,0.2669,0.2671,0.2899,0,0.206,0.2155,0.2205,0.2278,0.2321,0.2361,0.2422,0.2476,0.2515,0.256,0.2588,0.262,0.2605,0.2607,0.2648,0.2671,0.2745,0.2652,0.2754,0.2758,0.2716,0.2834,0.2595,0.2771,0.2915,0.2918,0.292,0,0.2099,0.2162,0.2239,0.2318,0.2339,0.2375,0.2448,0.2507,0.2586,0.2618,0.2666,0.2676,0.2752,0.2701,0.2826,0.2766,0.2818,0.2842,0.285,0.279,0.2755,0.2711,0.2796,0.2948,0.2946,0.2944,0.2942,0,0.2061,0.2173,0.2227,0.2258,0.2354,0.238,0.2426,0.2508,0.2556,0.2643,0.2686,0.276,0.2812,0.286,0.2954,0.2882,0.3099,0.3,0.3043,0.3045,0.2844,0.2822,0.3102,0.3102,0.3101,0.3101,0.31,0,0.2073,0.2106,0.22,0.2223,0.2263,0.2346,0.2389,0.2449,0.2543,0.2632,0.2696,0.2785,0.2847,0.2979,0.3015,0.3127,0.3169,0.3087,0.3097,0.2875,0.2855,0.298,0.2962,0.3109,0.3107,0.3106,0.3104,0,0.2005,0.2079,0.2119,0.2213,0.2235,0.225,0.2343,0.2399,0.2497,0.2618,0.2653,0.2829,0.3011,0.3119,0.3253,0.3226,0.3308,0.3347,0.3122,0.3099,0.3213,0.3197,0.3368,0.3369,0.3369,0.337,0.337,0,0.198,0.2,0.2071,0.21,0.2131,0.218,0.2235,0.2342,0.2434,0.2665,0.2745,0.2952,0.308,0.3295,0.333,0.3425,0.3454,0.3235,0.3015,0.3246,0.3239,0.3223,0.3207,0.2825,0.2821,0.2818,0.2815,0,0.1925,0.1933,0.1975,0.2036,0.2081,0.2138,0.2239,0.2288,0.2481,0.2569,0.2768,0.2862,0.312,0.3102,0.3249,0.3252,0.3173,0.3166,0.3488,0.2778,0.2746,0.2735,0.2736,0.2785,0.2788,0.279,0.2792,0.2793,0.1865,0.187,0.1937,0.1981,0.2046,0.2121,0.2129,0.2259,0.2343,0.2483,0.2678,0.2748,0.2864,0.2923,0.2917,0.2926,0.3094,0.292,0.2924,0.2934,0.2813,0.2782,0.2811,0.2814,0.2816,0.2818,0.282,0,0.1827,0.1862,0.1904,0.1967,0.2007,0.2072,0.2165,0.2147,0.2197,0.2371,0.2452,0.2338,0.2371,0.2516,0.2475,0.2485,0.2397,0.2391,0.2242,0.2278,0.2308,0.2146,0.1971,0.1968,0.1965,0.1962,0,0,0.1817,0.1842,0.1867,0.1918,0.1972,0.1977,0.1995,0.1959,0.2024,0.201,0.2044,0.2242,0.2423,0.2143,0.2148,0.2055,0.2133,0.1983,0.2677,0.2538,0.2563,0.2645,0.2443,0,0,0,0,0]},{"header":{"parameterUnit":"m.s-1","parameterCategory":2,"la1":30.2991,"la2":30.254,"lo1":-89.0895,"lo2":-89.0444,"dy":0.0017,"dx":0.0017,"nx":28,"ny":28,"refTime":"2024-06-05T21:00:00:Z","depth":"2","parameterNumber":3,"parameterNumberName":"V-component_of_CURRENTS"},"data":[0,0,0,0,0,0,0,0,0,0,0,0,0,0,0,0,0,0,0,0,0,0,0,0,0,0,0,0,0,0,0,0,0,0,0,0,0,0,0,0,0,0,0,0,0,0,0,0,0,0,0,0,0,0,0,0,0,0,-0.0369,-0.037,0,-0.0492,-0.0494,-0.0496,-0.0559,-0.0559,-0.0558,-0.0558,-0.0651,-0.0654,-0.0656,0,0,0,0,0,0,0,0,0,0,0,0,0,-0.0282,-0.0283,-0.0368,-0.037,-0.0371,-0.0492,-0.0494,-0.0496,-0.0559,-0.0559,-0.0558,-0.0558,-0.065,-0.0653,-0.0657,0,0,0,0,0,0,0,0,0,0,0,0,0,-0.0358,-0.0284,-0.0368,-0.0414,-0.0419,-0.0491,-0.0494,-0.0497,-0.0559,-0.0559,-0.0558,-0.0558,-0.0649,-0.0653,-0.0657,-0.0693,0,0,-0.067,-0.0672,0,0,0,0,0,0,0,0,-0.0354,-0.0362,-0.0406,-0.0411,-0.0416,-0.0506,-0.0498,-0.0559,-0.0559,-0.051,-0.0558,-0.0557,-0.0597,-0.0606,-0.0636,-0.0697,-0.0701,-0.067,-0.0673,-0.0674,-0.0676,0,0,0,0,0,0,0,-0.0348,-0.0357,-0.0422,-0.0407,-0.0413,-0.046,-0.047,-0.0511,-0.0558,-0.0515,-0.0518,-0.0525,-0.06,-0.0632,-0.0639,-0.0703,-0.067,-0.0674,-0.0676,-0.0678,-0.0796,-0.0797,0,0,0,0,0,0,-0.032,-0.0352,-0.0418,-0.0425,-0.0378,-0.0461,-0.0473,-0.0481,-0.0558,-0.0568,-0.0526,-0.0528,-0.0625,-0.0634,-0.0642,-0.0691,-0.0674,-0.0678,-0.0681,-0.0796,-0.0796,-0.0797,0,0,0,0,0,0,-0.0318,-0.0325,-0.0413,-0.0388,-0.0402,-0.0462,-0.0472,-0.0484,-0.0529,-0.0566,-0.0577,-0.0559,-0.0625,-0.0636,-0.0685,-0.0694,-0.068,-0.0684,-0.0795,-0.0796,-0.0797,-0.0786,0,0,0,0,0,0,-0.0315,-0.0323,-0.0345,-0.0386,-0.0402,-0.0458,-0.0472,-0.0486,-0.0531,-0.0536,-0.0598,-0.0606,-0.0626,-0.0678,-0.0689,-0.07,-0.0687,-0.0794,-0.0795,-0.0796,-0.0785,-0.0786,-0.0787,0,0,0,0,0,-0.0311,-0.0332,-0.0346,-0.0355,-0.0422,-0.0458,-0.0472,-0.0516,-0.0533,-0.0555,-0.0595,-0.0604,-0.0693,-0.0683,-0.0695,-0.0707,-0.0793,-0.0795,-0.0796,-0.0785,-0.0786,-0.0787,0,0,0,0,0,0,-0.0299,-0.0342,-0.0357,-0.0389,-0.0421,-0.0467,-0.0496,-0.0525,-0.0579,-0.0583,-0.0622,-0.0633,-0.0676,-0.0696,-0.0684,-0.0744,-0.0742,-0.0745,-0.0729,-0.073,-0.0731,-0.0701,-0.0691,0,0,0,0,0,-0.0306,-0.0334,-0.0372,-0.0393,-0.041,-0.0457,-0.0487,-0.051,-0.055,-0.0576,-0.0618,-0.0658,-0.0692,-0.0714,-0.0748,-0.0789,-0.0794,-0.0802,-0.0803,-0.0803,-0.0787,-0.0832,-0.0835,-0.0802,-0.0802,-0.0802,0,0,-0.03,-0.033,-0.0344,-0.0394,-0.0423,-0.0435,-0.0475,-0.0509,-0.0524,-0.0575,-0.0621,-0.0667,-0.0704,-0.0744,-0.0764,-0.0762,-0.0811,-0.0805,-0.0805,-0.0788,-0.0834,-0.0837,-0.084,-0.0803,-0.0803,-0.0802,0,0,-0.0281,-0.0331,-0.034,-0.0368,-0.041,-0.0438,-0.0446,-0.0501,-0.0535,-0.0586,-0.0618,-0.0666,-0.0733,-0.0755,-0.0774,-0.0801,-0.0816,-0.0819,-0.0801,-0.0845,-0.0848,-0.0851,-0.0838,-0.084,-0.0818,-0.0818,-0.0818,0,-0.0273,-0.029,-0.0348,-0.0356,-0.0371,-0.043,-0.0427,-0.0472,-0.0537,-0.0561,-0.0592,-0.069,-0.0731,-0.0761,-0.0774,-0.0801,-0.0815,-0.0794,-0.0845,-0.0848,-0.0851,-0.0838,-0.084,-0.0818,-0.0818,-0.0818,-0.0818,0,-0.0248,-0.0272,-0.0276,-0.0303,-0.0329,-0.0343,-0.0389,-0.0429,-0.0482,-0.0528,-0.0593,-0.0663,-0.0716,-0.0743,-0.0772,-0.081,-0.0807,-0.0842,-0.0839,-0.0854,-0.0839,-0.0841,-0.0818,-0.0818,-0.0818,-0.0818,0,0,-0.0204,-0.025,-0.0255,-0.0255,-0.0305,-0.0315,-0.0341,-0.0383,-0.0397,-0.0491,-0.0516,-0.0609,-0.0666,-0.069,-0.0742,-0.0785,-0.0822,-0.0825,-0.0827,-0.0803,-0.0887,-0.0842,-0.084,-0.0881,-0.0882,-0.0882,-0.0859,0,-0.0165,-0.0166,-0.0202,-0.0193,-0.0194,-0.0249,-0.0266,-0.0313,-0.0372,-0.0417,-0.0508,-0.0555,-0.064,-0.0667,-0.0734,-0.0789,-0.0831,-0.0821,-0.0883,-0.0883,-0.0836,-0.0843,-0.0805,-0.0779,-0.0861,-0.0862,-0.0862,0,-0.0126,-0.0138,-0.0126,-0.0141,-0.0145,-0.0153,-0.0184,-0.0205,-0.0279,-0.0327,-0.0403,-0.0474,-0.0543,-0.0622,-0.0735,-0.073,-0.0811,-0.0861,-0.0863,-0.0824,-0.0844,-0.0784,-0.078,-0.0866,-0.0865,-0.0865,-0.0865,0,-0.0068,-0.0079,-0.0069,-0.0077,-0.0107,-0.0114,-0.0134,-0.0189,-0.0187,-0.0265,-0.0259,-0.0389,-0.0407,-0.0555,-0.0667,-0.0715,-0.0768,-0.0847,-0.0875,-0.0871,-0.0847,-0.0839,-0.0939,-0.0939,-0.0939,-0.0939,-0.0939,0,-0.0021,-0.0015,-0.0047,-0.0048,-0.003,-0.0068,-0.0054,-0.0093,-0.0115,-0.007,-0.0211,-0.0182,-0.0398,-0.0455,-0.0615,-0.0716,-0.0733,-0.0854,-0.0869,-0.0838,-0.083,-0.0921,-0.0919,-0.0938,-0.0938,-0.0939,-0.0939,0,0.003,0.0007,0.0023,-0.0003,-0.0005,0.0002,0.0015,0.0042,0.0007,0.0074,0.0066,-0.001,-0.0081,-0.0261,-0.0439,-0.0592,-0.0727,-0.0765,-0.0678,-0.0685,-0.0817,-0.0815,-0.0814,-0.0813,-0.0812,-0.081,-0.0809,0,0.0049,0.0061,0.0062,0.0089,0.0073,0.0086,0.0116,0.0091,0.0151,0.0207,0.027,0.0222,0.021,-0.0018,-0.0294,-0.0533,-0.0614,-0.065,-0.0759,-0.0793,-0.0808,-0.0808,-0.0808,-0.0712,-0.071,-0.0709,-0.0708,0,0.0093,0.0092,0.0107,0.0164,0.0197,0.0255,0.0303,0.037,0.0403,0.0468,0.0575,0.0568,0.037,0.0136,-0.0185,-0.0361,-0.0622,-0.063,-0.069,-0.0747,-0.0694,-0.0709,-0.0713,-0.0696,-0.0697,-0.0698,-0.0698,-0.0699,0.0131,0.016,0.0198,0.025,0.032,0.0432,0.0479,0.0577,0.0687,0.0798,0.0801,0.0807,0.053,0.0126,-0.0163,-0.0478,-0.0511,-0.065,-0.0656,-0.0663,-0.0653,-0.0601,-0.0579,-0.0579,-0.058,-0.058,-0.0581,0,0.0185,0.0228,0.0292,0.0369,0.0467,0.049,0.0624,0.0689,0.0835,0.0954,0.101,0.0812,0.0545,0.0236,-0.0225,-0.0516,-0.0574,-0.0591,-0.0621,-0.063,-0.0638,-0.063,-0.0549,-0.055,-0.0551,-0.0551,0,0,0.0223,0.029,0.0319,0.0477,0.0555,0.068,0.0757,0.087,0.0967,0.1078,0.1099,0.1038,0.0676,0.0352,-0.0039,-0.0293,-0.0396,-0.0336,-0.033,-0.0328,-0.0333,-0.0638,-0.063,0,0,0,0,0]}],[{"header":{"parameterUnit":"m.s-1","parameterCategory":2,"la1":30.2991,"la2":30.254,"lo1":-89.0895,"lo2":-89.0444,"dy":0.0017,"dx":0.0017,"nx":28,"ny":28,"refTime":"2024-06-05T21:00:00:Z","depth":"4","parameterNumber":2,"parameterNumberName":"U-component_of_CURRENTS"},"data":[0,0,0,0,0,0,0,0,0,0,0,0,0,0,0,0,0,0,0,0,0,0,0,0,0,0,0,0,0,0,0,0,0,0,0,0,0,0,0,0,0,0,0,0,0,0,0,0,0,0,0,0,0,0,0,0,0,0,0.1065,0.1066,0,0.1103,0.1104,0.1104,0.115,0.1151,0.1151,0.1152,0.1168,0.1168,0.1168,0,0,0,0,0,0,0,0,0,0,0,0,0,0.1029,0.1029,0.1065,0.1066,0.1066,0.1103,0.1104,0.1105,0.115,0.1151,0.1151,0.1152,0.1169,0.1168,0.1168,0,0,0,0,0,0,0,0,0,0,0,0,0,0.1054,0.103,0.1065,0.1093,0.1096,0.1103,0.1104,0.1105,0.115,0.1151,0.1152,0.1153,0.1169,0.1168,0.1168,0.1146,0,0,0.1167,0.1167,0,0,0,0,0,0,0,0,0.1052,0.1055,0.1088,0.1091,0.1094,0.1123,0.1097,0.1117,0.1149,0.1129,0.1152,0.1153,0.115,0.1152,0.1157,0.1147,0.1148,0.1167,0.1167,0.1167,0.1167,0,0,0,0,0,0,0,0.1051,0.1054,0.1081,0.1089,0.1092,0.1103,0.1107,0.1101,0.1133,0.1131,0.1135,0.1138,0.1152,0.1157,0.1158,0.1148,0.1167,0.1167,0.1167,0.1167,0.1254,0.1256,0,0,0,0,0,0,0.1044,0.1052,0.1079,0.1082,0.1075,0.1103,0.1108,0.1113,0.1134,0.1138,0.1137,0.114,0.1157,0.1158,0.1158,0.1235,0.1167,0.1167,0.1166,0.1251,0.1254,0.1257,0,0,0,0,0,0,0.1044,0.1047,0.1078,0.1068,0.1072,0.1102,0.1107,0.1113,0.1141,0.1139,0.1143,0.1162,0.1158,0.1159,0.1192,0.1232,0.1166,0.1166,0.1248,0.1252,0.1256,0.1323,0,0,0,0,0,0,0.1042,0.1046,0.1062,0.1067,0.1073,0.1102,0.1106,0.1113,0.114,0.1145,0.1161,0.1163,0.1159,0.1193,0.1192,0.1231,0.1166,0.1245,0.125,0.1255,0.1318,0.1329,0.1338,0,0,0,0,0,0.1041,0.105,0.1062,0.1066,0.1089,0.1103,0.1107,0.1131,0.1141,0.1159,0.1182,0.1163,0.1223,0.1194,0.1193,0.1232,0.1243,0.1249,0.1254,0.1314,0.1327,0.1338,0,0,0,0,0,0,0.1045,0.1056,0.1069,0.1084,0.1103,0.1111,0.113,0.1141,0.1172,0.1188,0.1182,0.1186,0.1233,0.1225,0.1194,0.1276,0.1234,0.124,0.128,0.1292,0.1302,0.1314,0.1166,0,0,0,0,0,0.1052,0.1064,0.1077,0.1093,0.1103,0.112,0.1134,0.1153,0.1172,0.1189,0.1204,0.1227,0.125,0.1265,0.128,0.1312,0.1311,0.1344,0.1354,0.1362,0.1375,0.142,0.1435,0.1275,0.1275,0.1275,0,0,0.1059,0.1067,0.1076,0.1096,0.1112,0.1132,0.1132,0.1163,0.1194,0.1183,0.124,0.1257,0.1266,0.1316,0.1337,0.1317,0.1406,0.137,0.1376,0.1384,0.1427,0.1443,0.1456,0.1279,0.1279,0.1278,0,0,0.1068,0.1087,0.1099,0.1117,0.1148,0.1158,0.117,0.12,0.1234,0.1278,0.1292,0.134,0.1362,0.1394,0.1404,0.1478,0.1455,0.1487,0.1548,0.1592,0.1605,0.1617,0.1621,0.1633,0.1495,0.1495,0.1495,0,0.108,0.1093,0.1107,0.1125,0.1145,0.117,0.1193,0.1226,0.1272,0.1307,0.131,0.1389,0.1401,0.1463,0.1507,0.15,0.151,0.1495,0.1604,0.1615,0.1626,0.1628,0.164,0.1499,0.1499,0.1498,0.1498,0,0.1091,0.1115,0.1124,0.1155,0.118,0.1206,0.1246,0.1296,0.1335,0.1368,0.145,0.148,0.1529,0.1549,0.1552,0.1643,0.1619,0.1606,0.1567,0.1646,0.1643,0.1654,0.1505,0.1503,0.1502,0.1501,0,0,0.1077,0.1123,0.113,0.1155,0.1202,0.1221,0.1287,0.1347,0.1398,0.1463,0.1526,0.16,0.1629,0.1647,0.1665,0.1718,0.1803,0.1709,0.1709,0.1702,0.1883,0.1799,0.1802,0.1813,0.1816,0.1818,0.1844,0,0.1084,0.1117,0.1143,0.1191,0.1211,0.1267,0.1317,0.1386,0.1448,0.152,0.1584,0.165,0.166,0.1701,0.1757,0.1803,0.1838,0.1796,0.1817,0.1817,0.1725,0.1815,0.1827,0.1852,0.1855,0.1857,0.1858,0,0.1077,0.1104,0.1143,0.121,0.1226,0.1265,0.136,0.1418,0.1524,0.1572,0.1658,0.1704,0.1814,0.1795,0.1908,0.1885,0.1895,0.1913,0.1913,0.1821,0.1755,0.1763,0.1877,0.1876,0.1874,0.1873,0.1872,0,0.1039,0.1103,0.1134,0.1157,0.1233,0.1282,0.1341,0.1442,0.1501,0.1627,0.1683,0.1786,0.1848,0.1912,0.1976,0.1956,0.207,0.2032,0.1949,0.1941,0.1973,0.196,0.2087,0.2087,0.2087,0.2087,0.2087,0,0.1011,0.1041,0.1126,0.1143,0.1196,0.1274,0.1354,0.1424,0.1533,0.1608,0.1718,0.1786,0.1888,0.1965,0.2001,0.2023,0.2089,0.1979,0.1959,0.1998,0.1989,0.1979,0.1966,0.2088,0.2088,0.2087,0.2087,0,0.0947,0.1,0.1043,0.1139,0.1172,0.122,0.1344,0.1406,0.1523,0.1627,0.1678,0.1806,0.1925,0.2,0.2089,0.2039,0.2078,0.205,0.2085,0.2063,0.1902,0.1892,0.1961,0.1959,0.1957,0.1955,0.1954,0,0.0909,0.0924,0.1022,0.1055,0.1101,0.119,0.1247,0.1376,0.1436,0.1636,0.1666,0.1826,0.1908,0.1963,0.2041,0.2087,0.2059,0.2028,0.1974,0.1924,0.1898,0.1891,0.1885,0.1951,0.195,0.195,0.1949,0,0.0841,0.0883,0.0921,0.0989,0.1054,0.1118,0.1214,0.1243,0.1408,0.1528,0.1645,0.1737,0.1841,0.1915,0.1953,0.1983,0.2037,0.2006,0.2009,0.1959,0.1911,0.1886,0.1882,0.1942,0.1943,0.1944,0.1944,0,0.0789,0.0801,0.0864,0.092,0.0993,0.1037,0.1097,0.119,0.1269,0.1481,0.1518,0.1709,0.1828,0.1861,0.1918,0.1937,0.1903,0.1818,0.183,0.1838,0.1791,0.1712,0.1686,0,0,0,0,0,0.0731,0.0749,0.0798,0.0856,0.0927,0.0972,0.107,0.1136,0.1288,0.1339,0.1428,0.1545,0.1662,0.1741,0.1738,0.1849,0.1891,0.1834,0.1793,0.1904,0.1912,0.187,0,0,0,0,0,0,0.0697,0.0729,0.0768,0.0798,0.0829,0.0898,0.0959,0.1059,0.1084,0.1249,0.1318,0.145,0.1573,0.1662,0.1713,0.1735,0.1677,0.1939,0.1935,0.1899,0.1907,0.1913,0.1873,0,0,0,0,0]},{"header":{"parameterUnit":"m.s-1","parameterCategory":2,"la1":30.2991,"la2":30.254,"lo1":-89.0895,"lo2":-89.0444,"dy":0.0017,"dx":0.0017,"nx":28,"ny":28,"refTime":"2024-06-05T21:00:00:Z","depth":"4","parameterNumber":3,"parameterNumberName":"V-component_of_CURRENTS"},"data":[0,0,0,0,0,0,0,0,0,0,0,0,0,0,0,0,0,0,0,0,0,0,0,0,0,0,0,0,0,0,0,0,0,0,0,0,0,0,0,0,0,0,0,0,0,0,0,0,0,0,0,0,0,0,0,0,0,0,0.0017,0.0017,0,-0.0024,-0.0025,-0.0025,-0.0084,-0.0085,-0.0086,-0.0087,-0.0088,-0.0087,-0.0087,0,0,0,0,0,0,0,0,0,0,0,0,0,0.004,0.004,0.0017,0.0017,0.0016,-0.0024,-0.0025,-0.0025,-0.0084,-0.0085,-0.0087,-0.0088,-0.0089,-0.0088,-0.0086,0,0,0,0,0,0,0,0,0,0,0,0,0,0.0018,0.004,0.0017,-0.0018,-0.0022,-0.0024,-0.0025,-0.0025,-0.0084,-0.0085,-0.0087,-0.0088,-0.0089,-0.0088,-0.0086,-0.0047,0,0,-0.0082,-0.0081,0,0,0,0,0,0,0,0,0.0019,0.0017,-0.0013,-0.0016,-0.002,-0.0051,-0.0017,-0.0031,-0.0083,-0.006,-0.0087,-0.0089,-0.0071,-0.0071,-0.0076,-0.0047,-0.0047,-0.0082,-0.0081,-0.008,-0.008,0,0,0,0,0,0,0,0.0021,0.0019,0.0001,-0.0013,-0.0017,-0.0034,-0.0038,-0.002,-0.0056,-0.0062,-0.0067,-0.0071,-0.0073,-0.0077,-0.0076,-0.0047,-0.0082,-0.0081,-0.008,-0.0079,0.0015,0.0016,0,0,0,0,0,0,0.0028,0.002,0.0002,-0.0001,-0.0004,-0.0033,-0.0038,-0.0039,-0.0057,-0.0061,-0.007,-0.0074,-0.0079,-0.0078,-0.0076,-0.0016,-0.008,-0.0079,-0.0078,0.0013,0.0015,0.0017,0,0,0,0,0,0,0.0029,0.0027,0.0004,0.0009,0.0004,-0.0031,-0.0032,-0.0039,-0.0049,-0.0063,-0.0067,-0.0074,-0.008,-0.0078,-0.0057,-0.0017,-0.0079,-0.0077,0.0011,0.0014,0.0016,0.0096,0,0,0,0,0,0,0.003,0.0028,0.0035,0.0009,0.0004,0.0013,-0.0031,-0.0039,-0.0049,-0.0055,-0.0067,-0.0069,-0.0081,-0.0059,-0.0055,-0.0017,-0.0076,0.0009,0.0012,0.0015,0.0091,0.01,0.0109,0,0,0,0,0,0.0031,0.0052,0.0036,0.0034,0.0014,0.0014,0.0011,-0.002,-0.0048,-0.0038,-0.0051,-0.0069,-0.0037,-0.0056,-0.0053,-0.0012,0.0007,0.0011,0.0015,0.0087,0.0099,0.0108,0,0,0,0,0,0,0.0064,0.0048,0.0029,0.0043,0.0032,0.0004,0.0011,-0.0014,-0.0018,-0.0023,-0.0046,-0.0047,-0.0015,-0.0022,-0.0043,0.0023,-0.0017,-0.0012,0.0037,0.0048,0.0056,0.0061,-0.0075,0,0,0,0,0,0.0076,0.009,0.0065,0.0078,0.0073,0.0042,0.0038,0.0019,0.0008,0.0002,-0.0008,-0.0009,0.0007,0.0018,0.0025,0.0068,0.0019,0.0096,0.0105,0.0112,0.0119,0.0069,0.0073,0.0029,0.0029,0.0029,0,0,0.0091,0.0086,0.0092,0.0087,0.0072,0.0091,0.0036,0.0039,0.006,0.0008,0.0036,0.0021,0.0023,0.0063,0.0079,0.0062,0.0099,0.0117,0.0124,0.0126,0.0073,0.0077,0.008,0.0032,0.0031,0.0031,0,0,0.0139,0.0124,0.0152,0.0151,0.0142,0.013,0.0133,0.011,0.0105,0.0129,0.0098,0.0102,0.0127,0.0131,0.0139,0.0205,0.0143,0.0214,0.0271,0.0222,0.0225,0.0227,0.0161,0.0156,0.0224,0.0224,0.0224,0,0.0157,0.0186,0.0161,0.0188,0.0197,0.0153,0.0185,0.0186,0.0175,0.018,0.0151,0.0166,0.0161,0.0209,0.0229,0.0226,0.0176,0.023,0.0232,0.0233,0.0233,0.0165,0.0159,0.0228,0.0227,0.0227,0.0227,0,0.0223,0.0247,0.0264,0.0287,0.0296,0.0317,0.031,0.0318,0.0299,0.0289,0.0311,0.029,0.0294,0.0301,0.0289,0.0308,0.0263,0.0241,0.02,0.0242,0.0168,0.016,0.0234,0.0233,0.0231,0.023,0,0,0.0258,0.0302,0.0308,0.0333,0.0348,0.0361,0.0404,0.0424,0.044,0.0429,0.0443,0.0465,0.0422,0.0427,0.0404,0.0372,0.0327,0.0316,0.0311,0.0243,0.02,0.0149,0.0134,0.0297,0.0297,0.0296,0.0144,0,0.0313,0.0385,0.0396,0.0465,0.0494,0.0483,0.0527,0.054,0.0529,0.0532,0.0508,0.0512,0.0483,0.0472,0.0442,0.0349,0.0311,0.037,0.0177,0.0171,0.0114,0.0125,0.0294,0.0137,0.0135,0.0134,0.0133,0,0.037,0.0411,0.0487,0.0544,0.0555,0.0596,0.0631,0.0665,0.0666,0.065,0.0639,0.0598,0.057,0.0522,0.0395,0.0428,0.0329,0.0251,0.0243,0.0163,0.0106,0.0089,0.0117,0.0118,0.0119,0.012,0.0121,0,0.0396,0.0473,0.0536,0.0556,0.0615,0.0651,0.0682,0.07,0.0717,0.0712,0.0692,0.0658,0.0604,0.0503,0.0345,0.0363,0.0168,0.0167,0.0031,0.0025,0.0079,0.0079,0.0074,0.0074,0.0074,0.0075,0.0075,0,0.0443,0.0492,0.0555,0.0588,0.0658,0.0689,0.075,0.0764,0.0776,0.0781,0.0749,0.0709,0.059,0.0466,0.0346,0.0148,0.0161,0.0036,-0.0014,0.0116,0.0122,0.0071,0.0073,0.0069,0.007,0.0071,0.0072,0,0.045,0.0499,0.0567,0.0643,0.0671,0.0716,0.0783,0.0808,0.0819,0.0813,0.0806,0.072,0.0553,0.0413,0.0211,0.0123,-0.0042,-0.0115,0.0013,-0.0028,-0.015,-0.0142,-0.0266,-0.0269,-0.0272,-0.0274,-0.0275,0,0.0458,0.0496,0.0589,0.0624,0.0661,0.0733,0.0772,0.0819,0.0832,0.0803,0.0781,0.0643,0.0562,0.0243,0.0102,-0.0135,-0.0161,-0.0238,-0.0157,-0.0147,-0.0184,-0.0171,-0.016,-0.0279,-0.028,-0.0281,-0.0281,0,0.0457,0.0492,0.054,0.0609,0.0664,0.0727,0.0784,0.0796,0.0828,0.0837,0.0738,0.0602,0.0402,0.0205,0.0007,-0.0152,-0.0174,-0.0265,-0.0259,-0.0184,-0.0164,-0.0196,-0.0182,-0.029,-0.0289,-0.0288,-0.0288,0,0.0437,0.046,0.0519,0.0575,0.0641,0.0688,0.0739,0.0748,0.0769,0.0752,0.0705,0.0534,0.0446,0.0189,0.0008,-0.0156,-0.0175,-0.0191,-0.019,-0.0182,-0.0101,-0.006,-0.0202,0,0,0,0,0,0.0409,0.0428,0.0477,0.0539,0.0601,0.0643,0.0719,0.0764,0.0799,0.0727,0.0725,0.0547,0.0286,0.0176,-0.0001,-0.0043,-0.0211,-0.0254,-0.023,-0.0339,-0.0329,-0.0251,0,0,0,0,0,0,0.0388,0.0428,0.0455,0.049,0.0523,0.0589,0.0642,0.0677,0.0651,0.0667,0.0527,0.0497,0.0237,0.0367,-0.0015,-0.0063,-0.0069,-0.0364,-0.0367,-0.0345,-0.0336,-0.0327,-0.0243,0,0,0,0,0]}]]